Weather Roundup
Issued by NWS Chicago, IL

Home | Current Version | Previous Version | Text Only | Print | Product List | Glossary Off
Versions: 1 2 3 4 5 6 7 8 9 10 11 12 13 14 15 16 17 18 19 20 21 22 23 24 25 26 27 28 29 30 31 32 33 34 35 36 37 38 39 40 41 42 43 44 45 46 47 48 49 50

421
NZUS59 KLOT 101807
HRRLOT

CHICAGO AREA WEATHER ROUNDUP
NATIONAL WEATHER SERVICE CHICAGO/ROMEOVILLE IL
1200 PM CST SAT DEC 10 2016

NOTE: "FAIR" INDICATES FEW OR NO CLOUDS BELOW 12,000 FEET WITH NO
SIGNIFICANT WEATHER AND/OR OBSTRUCTIONS TO VISIBILITY.

* THESE STATIONS ARE NOT UNDER NWS QUALITY CONTROL. THEY ALSO MAY NOT
  REPORT WEATHER SUCH AS PRECIPITATION OR FOG.

ILZ005-006-012>014-019>023-101900-
NORTHEAST ILLINOIS

CITY           SKY/WX    TMP DP  RH WIND       PRES   REMARKS
OHARE          CLOUDY    23  13  65 W8        30.47F WCI  14
6HR MIN TEMP:  18; 6HR MAX TEMP:  23;

MIDWAY         PTSUNNY   24  12  60 SW8       30.48F WCI  15
6HR MIN TEMP:  20; 6HR MAX TEMP:  25;

AURORA         CLOUDY    23  15  71 W8        30.48F WCI  14
6HR MIN TEMP:  17; 6HR MAX TEMP:  23;

LANSING*       CLOUDY    24  16  72 SW12      30.49F WCI  13
JOLIET*        CLOUDY    25  15  67 SW6       30.49F WCI  18
WAUKEGAN       CLOUDY    24  12  60 W9        30.44F WCI  14
6HR MIN TEMP:  16; 6HR MAX TEMP:  24;

DUPAGE AIRPORT MOSUNNY   22  13  68 W8        30.46F WCI  12
6HR MIN TEMP:  17; 6HR MAX TEMP:  22;

WHEELING       MOSUNNY   23  12  62 W10       30.48F WCI  12
6HR MIN TEMP:  18; 6HR MAX TEMP:  23;

KANKAKEE*      CLOUDY    25  16  67 CALM      30.50F
MORRIS*        MOSUNNY   24  14  65 CALM      30.49F
LEWIS AIRPORT* CLOUDY    23  18  80 W5        30.49F WCI  17
NORTHERLY ISL    N/A     24  13  62 S9          N/A  WCI  15
$$

WIZ051-052-058>065-066-070>072-101900-
SOUTHEAST WISCONSIN

CITY           SKY/WX    TMP DP  RH WIND       PRES   REMARKS
MILWAUKEE      PTSUNNY   22   9  57 W12       30.45F WCI  10
6HR MIN TEMP:  18; 6HR MAX TEMP:  23; 6HR PCP: TRACE;

KENOSHA*       CLOUDY    24  13  62 W13       30.45F WCI  12
RACINE*        CLOUDY    23  11  60 W8        30.47S WCI  14
BURLINGTON     CLOUDY    27  18  70 W9        30.44F WCI  17
WAUKESHA       MOSUNNY   18   9  68 W10       30.45F WCI   6
WEST BEND      SUNNY     19   9  63 W7        30.42S WCI  10
$$

INZ001>003-010>013-019-020-101900-
NORTHWEST INDIANA

CITY           SKY/WX    TMP DP  RH WIND       PRES   REMARKS
GARY*          CLOUDY    27  12  54 W12       30.50F WCI  16
MICHIGAN CITY* NOT AVBL
RENSSELAER*    NOT AVBL
VALPARAISO     SUNNY     25  14  63 SW10      30.48F WCI  15
$$

LMZ740>746-101900-
SOUTHERN LAKE MICHIGAN

STATION/POSITION TIME  SKY/WX   TEMP WIND        PRES    VSBY
                                AIR  DIR/SP/G
                 (UTC)          (F)  (DEG/KT/KT) (MB)    (MI)
HARRISON CRIB    NOT AVBL
BURNHAM HARBOR   1800            25  270/  7/ 11   N/A
CALUMET HARBOR   1748            24  230/  6/ 12 1031.5F
BURNS HARBOR     1740            25  260/ 11/ 13 1032.8F
MICHIGAN CITY    NOT AVBL
$$

ABBREVIATIONS USED IN REMARKS
   TC - TEMPERATURE IN CELSIUS
  WCI - WIND CHILL INDEX
   HX - HEAT INDEX
  VSB - VISIBILITY
$$




USA.gov is the U.S. government's official web portal to all federal, state and local government web resources and services.